YO6IKB-10 Weather Reports


Display with metric or nautical units.
time (UTC)temp
F
wind
direction
speed
MPH
gust
MPH
rain 1hr
in
rain 24hr
in
rain mn
in
humidity
%
barometer
mb
20260902182632 69 292 0.0 0.0 0.00 0.00 0.00 58 1016.0
20260902182132 69 292 0.0 0.0 0.00 0.00 0.00 58 1016.0
20260902181631 70 292 0.0 1.0 0.00 0.00 0.00 57 1015.9
20260902181131 70 292 0.0 0.0 0.00 0.00 0.00 56 1015.9
20260902180631 70 292 0.0 1.0 0.00 0.00 0.00 56 1015.9
20260902180130 71 292 0.0 2.0 0.00 0.00 0.00 56 1015.8
20260902175630 71 180 1.0 3.0 0.00 0.00 0.00 55 1015.7
20260902175130 71 0 2.0 2.0 0.00 0.00 0.00 54 1015.7
20260902174630 72 0 0.0 1.0 0.00 0.00 0.00 53 1015.6
20260902174129 72 0 0.0 2.0 0.00 0.00 0.00 52 1015.6
20260902173629 72 0 2.0 2.0 0.00 0.00 0.00 52 1015.5
20260902173129 72 0 0.0 0.0 0.00 0.00 0.00 51 1015.6
20260902172628 73 0 0.0 0.0 0.00 0.00 0.00 50 1015.5
20260902172128 73 0 0.0 1.0 0.00 0.00 0.00 50 1015.4
20260902171628 73 0 0.0 1.0 0.00 0.00 0.00 50 1015.5
20260902171128 73 0 0.0 2.0 0.00 0.00 0.00 49 1015.4
20260902170627 74 0 0.0 0.0 0.00 0.00 0.00 49 1015.4
20260902170127 74 0 0.0 0.0 0.00 0.00 0.00 49 1015.4
20260902165627 74 0 0.0 1.0 0.00 0.00 0.00 49 1015.3
20260902165126 75 0 0.0 1.0 0.00 0.00 0.00 49 1015.3
20260902164626 75 0 0.0 1.0 0.00 0.00 0.00 48 1015.3
20260902164126 75 0 0.0 2.0 0.00 0.00 0.00 48 1015.3
20260902163626 75 0 1.0 3.0 0.00 0.00 0.00 48 1015.3
20260902163125 75 0 2.0 3.0 0.00 0.00 0.00 49 1015.4
20260902162625 75 0 2.0 2.0 0.00 0.00 0.00 49 1015.3
20260902162125 75 0 0.0 2.0 0.00 0.00 0.00 49 1015.3
20260902161624 75 0 0.0 2.0 0.00 0.00 0.00 48 1015.3
20260902161124 75 0 0.0 4.0 0.00 0.00 0.00 48 1015.3
20260902160624 76 0 1.0 3.0 0.00 0.00 0.00 47 1015.4
20260902160123 76 22 1.0 4.0 0.00 0.00 0.00 47 1015.5
20260902155623 76 22 2.0 3.0 0.00 0.00 0.00 46 1015.5
20260902155123 76 22 0.0 0.0 0.00 0.00 0.00 47 1015.4
20260902154623 76 22 0.0 0.0 0.00 0.00 0.00 47 1015.4
20260902154122 77 22 0.0 3.0 0.00 0.00 0.00 46 1015.3
20260902153622 77 0 2.0 3.0 0.00 0.00 0.00 46 1015.2
20260902153122 78 0 2.0 3.0 0.00 0.00 0.00 45 1015.1
20260902152621 78 337 2.0 5.0 0.00 0.00 0.00 45 1015.0
20260902152121 79 0 3.0 6.0 0.00 0.00 0.00 44 1015.1
20260902151621 80 315 1.0 4.0 0.00 0.00 0.00 44 1015.2
20260902151121 80 225 0.0 3.0 0.00 0.00 0.00 45 1015.2
20260902150620 81 225 3.0 4.0 0.00 0.00 0.00 44 1015.3
20260902150120 81 202 2.0 5.0 0.00 0.00 0.00 44 1015.2
20260902145620 81 202 1.0 5.0 0.00 0.00 0.00 43 1015.2
20260902145119 82 225 2.0 7.0 0.00 0.00 0.00 44 1015.2
20260902144619 82 292 2.0 4.0 0.00 0.00 0.00 44 1015.1
20260902144119 82 247 3.0 5.0 0.00 0.00 0.00 44 1015.2
20260902143618 81 247 1.0 4.0 0.00 0.00 0.00 44 1015.3
20260902143118 81 225 3.0 3.0 0.00 0.00 0.00 44 1015.4
20260902142618 82 225 0.0 7.0 0.00 0.00 0.00 43 1015.4
20260902142118 82 202 2.0 6.0 0.00 0.00 0.00 44 1015.4
20260902141617 82 292 2.0 2.0 0.00 0.00 0.00 44 1015.3
20260902141117 82 292 0.0 4.0 0.00 0.00 0.00 43 1015.4
20260902140617 82 292 2.0 3.0 0.00 0.00 0.00 44 1015.5
20260902140116 82 292 0.0 9.0 0.00 0.00 0.00 43 1015.5
20260902135616 82 225 8.0 8.0 0.00 0.00 0.00 43 1015.6
20260902135116 83 225 4.0 9.0 0.00 0.00 0.00 42 1015.6
20260902134616 83 225 4.0 6.0 0.00 0.00 0.00 43 1015.6
20260902134115 83 247 0.0 6.0 0.00 0.00 0.00 43 1015.7
20260902133615 83 292 3.0 5.0 0.00 0.00 0.00 44 1015.7
20260902133115 83 292 5.0 5.0 0.00 0.00 0.00 44 1015.7
20260902132614 83 292 1.0 4.0 0.00 0.00 0.00 44 1015.8
20260902132114 83 292 0.0 6.0 0.00 0.00 0.00 44 1015.8
20260902131614 82 292 1.0 5.0 0.00 0.00 0.00 45 1015.8
20260902131113 82 292 1.0 4.0 0.00 0.00 0.00 45 1015.8
20260902130613 82 292 3.0 8.0 0.00 0.00 0.00 45 1015.8
20260902130113 82 292 2.0 6.0 0.00 0.00 0.00 45 1015.9
20260902125613 82 315 5.0 6.0 0.00 0.00 0.00 45 1015.9
20260902125112 83 292 4.0 5.0 0.00 0.00 0.00 44 1015.9
20260902124612 83 292 3.0 6.0 0.00 0.00 0.00 45 1015.9
20260902124112 82 292 1.0 5.0 0.00 0.00 0.00 46 1016.0
20260902123611 82 292 3.0 9.0 0.00 0.00 0.00 46 1016.0
20260902123111 82 315 2.0 6.0 0.00 0.00 0.00 45 1016.0
20260902122611 82 292 4.0 9.0 0.00 0.00 0.00 45 1016.1
20260902122111 82 315 4.0 8.0 0.00 0.00 0.00 46 1016.1
20260902121610 82 292 3.0 10.0 0.00 0.00 0.00 46 1016.1
20260902121110 82 292 4.0 10.0 0.00 0.00 0.00 46 1016.1
20260902120610 82 292 1.0 13.0 0.00 0.00 0.00 46 1016.1
20260902120109 82 315 6.0 10.0 0.00 0.00 0.00 46 1016.2
20260902115609 82 292 2.0 9.0 0.00 0.00 0.00 45 1016.2
20260902115109 82 315 7.0 8.0 0.00 0.00 0.00 46 1016.4
20260902114608 82 292 0.0 5.0 0.00 0.00 0.00 46 1016.4
20260902114108 82 292 1.0 8.0 0.00 0.00 0.00 46 1016.4
20260902113608 82 292 0.0 8.0 0.00 0.00 0.00 48 1016.4
20260902113108 81 292 4.0 5.0 0.00 0.00 0.00 48 1016.5
20260902112607 81 337 1.0 2.0 0.00 0.00 0.00 46 1016.5
20260902112107 81 292 2.0 7.0 0.00 0.00 0.00 46 1016.5
20260902111607 82 315 6.0 11.0 0.00 0.00 0.00 45 1016.7
20260902111106 83 202 1.0 7.0 0.00 0.00 0.00 46 1016.6
20260902110606 83 292 6.0 11.0 0.00 0.00 0.00 46 1016.5
20260902110106 83 337 1.0 4.0 0.00 0.00 0.00 46 1016.5
20260902105606 83 315 0.0 5.0 0.00 0.00 0.00 47 1016.6
20260902105105 82 292 2.0 7.0 0.00 0.00 0.00 48 1016.6
20260902104605 82 292 3.0 6.0 0.00 0.00 0.00 48 1016.6
20260902104105 82 292 3.0 8.0 0.00 0.00 0.00 46 1016.7
20260902103604 83 22 4.0 7.0 0.00 0.00 0.00 45 1016.6
20260902103104 83 337 5.0 8.0 0.00 0.00 0.00 47 1016.6
20260902102604 82 292 0.0 9.0 0.00 0.00 0.00 47 1016.6
20260902102105 82 225 8.0 10.0 0.00 0.00 0.00 48 1016.5
20260902101603 82 22 5.0 8.0 0.00 0.00 0.00 46 1016.7
20260902101103 82 292 3.0 14.0 0.00 0.00 0.00 47 1016.7
20260902100603 82 315 5.0 10.0 0.00 0.00 0.00 46 1016.8
20260902100104 83 0 3.0 7.0 0.00 0.00 0.00 44 1016.8
20260902095602 83 292 4.0 9.0 0.00 0.00 0.00 47 1016.9
20260902095102 83 292 2.0 6.0 0.00 0.00 0.00 47 1016.9
20260902094601 82 292 5.0 9.0 0.00 0.00 0.00 48 1016.9